RH
7 7 8 8 8 8 8 9 10 9 7 7 5 5 4 4 4 4 5 5 5 6 6 5 6 6 6 7 8 8 8 9 9 11 14 18 18 16 24 40 72 99 100 100 100 82 100 100 100 100 100 100 100 100
7 8 7 7 8 9 9 10 11 13 9 8 7 6 5 5 5 5 5 5 6 6 6 6 7 7 7 8 8 8 8 8 10 11 13 18 18 16 21 58 68 96 100 100 100 100 98 85 100 100 100 100 100 99
7 7 6 7 9 9 10 12 12 15 15 10 8 7 6 6 6 6 6 7 6 6 6 6 6 7 7 8 8 9 9 9 9 9 10 15 20 18 27 70 100 99 100 100 100 93 87 96 88 100 100 100 100 100
6 6 8 9 9 12 13 13 10 11 17 16 10 8 7 6 7 7 7 7 7 7 7 8 8 8 10 10 10 10 12 11 9 10 11 12 19 21 33 92 100 100 100 100 100 100 100 100 100 96 100 100 100 100
7 7 8 9 11 11 9 7 7 7 11 15 14 9 8 7 7 8 8 8 9 9 10 10 11 11 10 10 12 12 13 12 11 10 12 16 21 24 36 71 96 100 100 100 100 100 100 93 91 82 100 100 100 100
7 8 10 9 7 5 5 6 7 7 8 9 14 14 9 8 9 10 10 12 12 11 10 10 11 11 11 12 12 11 12 13 12 12 14 16 22 25 34 53 86 100 100 100 100 88 89 98 99 100 100 80 79 83
10 8 5 4 5 6 6 7 7 8 8 9 10 14 14 10 10 12 11 12 11 10 11 12 14 14 12 12 12 11 12 12 13 14 15 17 20 26 32 58 92 89 100 100 100 100 100 100 98 84 91 100 100 100
5 5 5 5 5 5 6 5 6 7 9 10 11 10 14 13 11 11 13 13 12 14 15 16 15 16 15 14 13 13 12 13 14 15 17 20 24 28 32 76 99 86 98 98 94 100 100 100 100 96 96 95 96 98
5 5 5 5 5 5 5 6 6 6 8 10 10 8 10 14 12 11 16 16 15 19 19 18 18 18 17 16 15 15 16 14 14 17 19 20 23 30 33 48 78 95 100 93 94 100 98 96 94 91 92 92 94 93
6 5 4 4 4 4 4 5 5 6 7 9 13 11 9 12 16 15 14 18 19 20 22 20 20 19 18 20 20 20 18 17 19 20 22 25 28 29 32 32 36 62 84 93 94 100 90 86 90 94 93 91 88 88
5 4 4 4 3 3 3 4 5 6 7 8 14 14 10 9 10 13 15 20 24 25 24 25 25 22 20 21 24 25 23 22 21 22 25 28 29 29 29 31 33 35 43 62 72 70 69 69 72 77 72 65 60 56
5 4 4 4 4 3 4 4 4 6 7 9 12 15 12 7 9 19 25 26 26 27 26 28 28 30 27 25 26 27 27 27 27 26 29 32 28 27 28 29 29 31 33 34 34 37 38 39 37 35 34 33 30 28
5 4 4 4 4 3 3 4 4 5 6 7 8 9 9 8 8 22 40 37 41 38 31 30 30 32 33 31 33 34 32 28 26 30 32 26 25 26 28 28 28 28 28 28 28 28 26 25 24 24 24 23 22 18
4 4 4 4 3 4 4 4 5 6 8 8 9 9 9 13 18 32 48 42 27 30 36 36 36 33 34 33 38 37 39 39 39 36 30 32 32 30 28 26 24 22 20 18 18 19 20 20 20 19 19 18 17 16
4 4 4 4 4 4 5 6 6 7 8 9 10 11 12 13 12 17 30 37 39 47 51 50 51 51 52 54 51 57 61 60 53 48 48 44 35 28 26 24 23 21 22 21 22 21 20 19 18 15 14 13 12 11
5 5 5 4 5 5 6 7 8 8 10 10 11 12 14 14 14 20 30 38 41 41 43 45 48 53 61 63 66 68 70 61 62 57 56 60 57 49 44 40 38 33 29 25 22 18 16 14 13 12 12 12 12 11
6 6 6 6 6 7 8 9 10 11 11 11 11 12 12 11 13 17 22 30 29 29 29 30 31 36 39 39 34 35 26 29 28 26 21 17 16 15 14 14 14 15 15 16 17 16 16 17 17 15 15 15 16 17
8 8 7 7 8 8 10 10 11 11 11 12 13 15 15 15 14 15 16 18 24 27 32 38 43 43 32 27 30 30 26 23 23 24 27 32 33 40 47 51 50 48 47 46 44 41 38 34 30 27 24 22 19 17
8 8 9 8 9 10 11 11 11 12 13 14 14 15 16 17 18 19 22 25 29 39 44 44 46 48 46 42 46 52 64 75 83 95 94 83 79 75 69 63 57 54 49 44 38 34 30 26 23 21 18 15 13 10
9 9 10 9 9 11 12 12 12 13 14 15 16 17 18 20 21 23 25 29 31 33 37 44 50 62 72 88 99 100 98 91 86 80 77 76 71 64 56 50 44 38 34 30 27 23 20 16 13 12 10 9 9 8
12 11 11 10 11 12 13 15 17 17 17 20 22 23 25 26 33 39 48 58 70 84 90 97 98 96 93 93 90 86 85 82 79 74 68 63 56 50 43 36 31 27 24 21 19 15 14 11 9 8 7 6 6 5
31 31 30 30 32 36 36 40 42 44 48 54 57 61 65 69 74 79 86 83 84 85 87 87 87 87 87 87 86 82 78 74 68 62 58 52 44 38 30 24 19 16 13 10 9 8 7 6 6 5 5 4 4 4
41 43 49 54 56 56 62 61 61 64 66 68 70 71 73 75 77 82 84 83 84 86 88 90 90 87 82 79 77 77 74 74 69 63 56 45 35 26 20 16 12 10 8 7 6 6 5 4 4 3 3 3 3 3
54 67 68 65 67 70 73 71 72 70 70 72 75 78 81 82 84 86 88 89 92 92 89 86 83 85 89 93 90 84 84 71 60 48 38 27 19 14 11 8 7 6 6 5 4 3 3 3 3 3 3 3 3 3
72 74 74 72 76 77 77 78 79 78 78 82 83 85 86 85 82 84 86 88 90 95 99 96 96 98 98 96 93 87 75 63 47 32 22 16 11 8 7 6 5 4 4 4 4 4 4 4 3 3 3 3 3 2
74 76 75 76 76 78 78 80 79 83 86 86 86 88 89 90 95 99 97 97 96 99 100 99 96 97 98 94 94 81 61 40 26 17 12 9 6 5 4 4 4 4 4 4 4 4 3 3 3 2 2 2 2 2
85 86 82 81 79 77 81 81 86 92 95 92 88 92 98 100 100 98 99 100 100 99 97 98 99 98 95 87 70 46 34 22 15 12 8 6 5 4 4 4 4 4 4 3 3 3 3 2 2 2 2 2 2 2
80 81 81 81 88 87 82 84 87 92 91 93 97 100 100 100 100 100 100 100 100 100 100 98 92 81 68 55 39 30 20 14 10 8 6 5 5 4 4 4 4 3 3 3 2 2 2 2 2 2 2 2 2 2
78 81 82 83 86 85 89 92 90 92 98 100 100 100 100 100 100 100 100 99 98 99 92 76 64 53 46 37 28 19 13 10 7 6 5 5 4 4 3 3 3 3 3 2 2 2 2 2 2 2 2 2 2 2
81 84 85 87 96 100 100 98 100 100 100 100 100 100 100 100 100 96 95 94 94 87 76 63 52 41 35 27 19 13 10 7 6 5 5 4 4 3 3 3 3 2 2 2 2 2 2 2 2 2 2 2 2 2
92 90 94 100 100 100 100 100 100 100 100 100 100 100 100 100 97 93 93 90 84 74 63 50 38 33 25 17 12 9 7 6 5 4 4 4 3 3 3 3 2 2 2 2 2 2 2 2 2 2 2 2 2 2
86 91 95 99 100 100 100 100 100 100 100 100 100 100 100 100 99 97 88 81 68 58 45 36 30 22 16 12 9 7 6 5 4 4 4 3 3 3 3 2 2 2 2 2 2 2 2 2 2 2 2 2 2 2
87 91 96 100 100 100 100 100 100 100 100 100 98 99 98 91 88 80 66 58 47 38 31 25 20 15 11 9 7 6 5 4 4 4 3 3 3 3 2 2 2 2 2 2 2 2 2 1 1 1 1 2 2 2
Wind_Speed
40 37 34 32 30 30 28 25 24 22 19 19 20 19 21 21 21 20 20 24 25 26 29 29 29 33 35 35 39 44 45 45 45 46 50 53 61 69 75 77 80 96 95 86 83 88 76 76 77 70 74 74 70 65
36 33 31 29 28 28 27 24 22 24 21 18 19 19 18 18 17 19 22 22 23 28 26 29 31 32 34 37 39 39 41 44 45 49 53 55 63 68 75 79 75 95 96 98 88 85 82 87 84 84 80 81 76 74
32 30 29 26 27 27 27 25 21 21 24 20 18 18 17 16 17 18 20 22 24 25 28 32 31 29 31 33 35 38 39 42 45 50 52 56 63 66 74 81 78 84 90 85 88 91 87 84 84 78 78 83 84 80
29 27 25 26 27 26 26 25 23 21 23 22 20 18 17 16 17 19 19 21 22 24 24 24 28 29 30 33 35 36 36 44 47 51 55 57 62 67 76 87 84 83 90 87 85 83 91 88 88 82 80 79 81 83
26 25 26 27 27 28 27 24 23 21 23 24 22 21 18 17 18 19 18 19 21 21 22 23 26 28 28 30 30 34 39 43 45 48 53 55 60 66 77 84 87 83 82 87 85 89 91 89 90 85 84 84 83 83
26 26 26 28 28 25 23 22 21 22 21 25 25 22 20 19 18 21 22 24 24 24 24 24 25 27 28 31 34 36 38 41 43 46 52 56 62 65 75 81 82 85 85 85 85 87 85 85 88 87 86 89 90 91
25 26 25 22 21 21 22 24 24 24 24 25 28 26 23 23 25 26 23 23 23 24 24 24 24 25 28 31 33 36 39 42 43 45 50 56 58 63 72 78 80 85 85 86 88 87 87 88 88 89 90 91 93 93
23 20 18 17 18 19 21 23 24 25 25 28 29 30 27 24 24 23 22 24 24 23 23 24 25 25 26 28 31 34 37 39 41 45 50 56 60 62 65 78 82 79 82 86 89 88 89 91 91 92 93 94 96 99
16 13 13 12 14 16 18 21 23 25 28 30 31 30 27 25 22 24 26 24 25 27 27 27 27 27 26 28 30 33 36 37 40 44 48 52 56 59 61 70 79 79 79 79 79 82 85 89 92 97 98 98 100 101
11 10 6 5 7 11 17 21 24 25 27 29 30 29 28 28 25 24 25 25 24 25 25 26 27 28 28 28 29 30 34 38 41 42 43 47 54 58 60 63 68 76 80 81 80 81 82 83 86 89 92 94 97 99
6 7 5 3 6 9 13 18 22 24 27 29 32 32 29 28 25 22 22 24 25 25 25 26 26 28 28 27 27 28 31 34 38 38 41 45 49 53 56 59 62 65 70 75 78 79 80 82 85 89 91 91 92 93
6 4 2 4 7 10 13 17 21 23 27 32 35 33 29 26 24 22 24 25 25 24 25 25 25 25 26 26 26 25 27 29 32 35 38 42 49 51 54 57 58 60 62 65 67 71 74 77 80 81 83 86 88 88
1 2 5 7 9 11 15 17 19 23 26 27 28 27 26 22 23 23 25 25 27 28 28 28 28 27 27 28 28 27 28 30 31 32 36 42 44 45 49 53 56 59 61 64 67 70 73 74 76 78 79 81 83 83
6 7 9 10 12 14 17 20 21 21 21 22 24 24 22 23 27 31 33 32 26 24 23 22 23 23 23 24 25 26 27 27 29 34 37 36 40 43 47 52 56 59 61 62 63 65 67 69 70 71 72 73 73 73
12 12 12 14 17 19 19 20 23 25 26 26 25 24 27 29 29 28 26 25 22 23 23 23 22 21 22 22 22 22 23 26 29 30 33 37 40 42 44 47 49 51 52 54 55 56 57 59 61 63 64 65 66 67
17 16 17 19 20 21 23 23 23 23 23 23 24 28 28 27 30 32 30 28 26 24 22 21 20 19 19 21 22 24 26 27 30 33 34 36 39 41 43 45 48 50 52 54 56 57 58 58 58 57 57 58 59 59
22 21 21 23 25 25 25 26 26 25 25 23 24 24 25 27 30 31 31 28 27 25 22 21 19 19 19 20 22 22 22 23 25 28 30 31 31 32 32 32 33 34 35 37 39 42 44 46 47 49 51 53 55 57
25 26 27 28 29 29 28 27 26 26 25 25 25 24 22 21 22 22 25 24 21 17 14 13 12 12 11 10 12 13 13 15 15 15 16 16 18 19 21 24 27 30 33 36 39 41 44 47 50 52 54 56 58 59
27 28 28 28 32 32 31 30 29 28 28 26 24 24 22 20 19 19 18 17 15 14 13 12 11 10 10 9 9 8 6 5 8 10 13 17 20 24 27 31 33 36 39 42 45 48 50 53 55 57 59 60 61 62
31 30 32 31 34 34 34 33 33 33 32 31 30 29 29 28 26 25 25 23 22 20 18 16 15 13 11 7 4 4 8 12 15 17 20 24 27 31 34 37 41 44 46 49 51 54 56 58 59 60 61 61 61 61
38 37 37 38 39 40 39 41 40 39 38 39 37 36 35 34 33 32 30 28 26 24 20 16 12 9 7 4 4 7 11 15 19 23 27 31 34 37 40 43 46 48 51 53 55 57 58 60 61 60 60 59 59 59
42 42 42 43 44 45 44 44 43 42 41 41 39 36 34 33 31 28 27 24 21 18 15 11 7 3 3 7 12 16 21 25 29 32 35 38 41 43 45 47 50 52 53 54 56 57 57 57 57 56 55 54 53 52
43 43 43 43 42 40 40 38 37 36 36 34 33 31 30 28 26 23 20 18 15 11 8 6 7 10 14 19 23 27 30 34 37 40 43 45 47 47 49 50 50 50 51 52 52 52 52 51 50 49 48 47 47 46
42 41 40 38 36 36 35 34 32 30 28 28 26 25 23 22 20 16 13 10 7 8 10 13 16 21 25 28 31 35 38 42 44 46 48 47 46 46 45 45 45 46 47 47 47 47 47 46 45 44 43 43 44 44
38 37 35 33 32 30 29 27 26 24 23 22 21 18 16 15 13 11 11 11 13 14 17 20 24 27 31 34 38 41 45 48 50 49 48 46 45 43 42 42 42 42 44 44 44 44 43 43 43 42 43 43 43 43
33 31 29 27 25 24 22 22 21 19 17 14 13 13 12 12 12 12 12 13 16 18 21 25 28 32 36 41 45 49 51 52 51 50 47 44 41 39 38 39 41 42 41 41 41 41 41 42 42 42 42 42 42 42
28 25 23 21 19 18 17 16 15 13 11 9 10 11 12 12 13 13 16 18 21 24 27 30 34 38 43 47 50 52 53 52 51 48 45 42 42 40 40 40 40 39 39 40 40 40 41 42 42 42 42 42 42 42
23 19 17 16 16 13 11 9 9 8 8 11 13 14 14 15 17 19 22 24 27 30 33 37 40 44 47 50 53 53 53 51 49 47 45 44 43 41 40 39 39 39 39 39 39 40 41 41 41 41 40 40 39 39
17 14 12 12 11 8 5 4 5 8 10 12 13 15 17 20 22 25 26 29 32 36 39 42 45 48 50 53 53 53 52 51 50 47 46 44 41 40 39 39 39 40 40 40 40 40 39 39 38 38 38 38 37 37
12 10 9 7 6 3 1 3 6 8 11 13 16 20 23 25 27 30 33 35 38 42 45 47 49 51 52 53 54 53 52 50 48 48 43 41 41 40 40 40 41 40 40 40 39 38 38 37 37 36 36 36 36 36
12 10 8 5 4 4 5 8 10 13 16 20 23 26 28 31 33 35 38 40 43 47 49 50 51 52 53 53 54 52 51 49 47 43 42 42 41 40 40 41 41 40 39 38 38 37 36 36 36 35 35 35 35 35
12 10 8 7 7 7 9 12 15 19 22 25 28 31 35 36 38 41 43 45 47 50 51 51 52 53 53 53 51 50 49 47 44 43 42 42 41 41 40 40 40 39 38 37 36 36 35 35 35 35 35 34 34 33
14 12 11 12 12 14 17 20 23 25 28 31 34 36 38 41 43 45 45 47 49 50 51 52 52 52 52 51 50 49 46 44 44 42 42 41 41 40 39 39 38 37 36 35 35 34 34 34 34 34 34 33 32 32
Wind_Direction
289 286 284 280 276 274 272 272 274 276 270 265 257 250 247 241 235 232 227 222 218 215 218 217 218 216 216 215 215 216 217 216 214 210 209 206 206 206 207 209 209 205 208 211 214 215 214 218 219 223 225 233 231 237
286 282 276 274 272 269 268 268 266 269 267 258 255 249 243 236 229 223 221 217 211 212 210 211 212 211 212 212 216 219 216 214 209 206 206 204 205 206 207 209 209 208 212 213 214 218 219 223 224 227 230 236 236 236
281 275 273 271 266 264 265 267 264 257 259 254 246 245 239 230 218 218 216 212 209 207 207 209 210 211 211 213 215 212 214 211 210 208 206 204 204 205 205 208 210 213 212 218 218 221 225 228 228 229 232 234 237 238
275 272 269 265 262 262 264 266 262 251 244 250 243 237 231 219 212 212 212 210 208 207 206 204 207 207 209 211 212 208 206 208 207 206 206 204 202 203 205 207 210 214 215 216 216 223 225 226 229 232 234 236 238 241
272 268 265 261 260 263 265 263 258 245 236 240 239 233 226 214 206 207 204 202 203 199 202 202 201 204 209 211 207 199 200 204 204 205 204 204 203 204 206 209 211 214 217 220 222 226 227 229 233 234 236 237 239 244
268 267 262 260 263 264 261 254 245 238 228 228 231 227 220 210 196 198 197 200 198 197 195 191 196 198 194 196 197 196 197 198 200 202 204 204 203 205 207 211 213 216 217 220 224 228 231 233 234 235 239 240 242 243
268 268 270 269 263 254 247 240 232 226 217 216 222 221 215 209 201 204 201 197 192 191 187 183 184 188 190 189 188 190 194 196 197 201 204 205 205 208 210 212 215 218 220 222 225 226 230 234 237 238 241 244 247 249
275 277 270 260 251 243 234 229 222 217 207 207 212 216 212 207 204 202 198 193 189 185 179 178 182 180 184 186 186 188 192 195 197 200 203 205 207 210 212 213 218 221 224 228 228 229 232 236 239 242 244 246 249 251
277 271 260 244 228 223 217 217 214 210 204 202 207 212 209 207 201 190 190 186 181 181 179 178 179 179 182 188 191 189 190 195 199 202 204 208 211 213 216 217 221 223 226 230 233 236 238 240 243 244 246 250 252 254
278 263 257 243 223 209 201 203 207 203 198 196 200 204 206 206 198 188 185 178 182 181 179 181 181 183 184 187 192 194 196 197 201 205 208 210 213 217 220 223 226 228 230 234 236 240 242 244 246 248 250 251 254 255
289 312 303 268 221 201 189 189 196 197 194 192 192 200 204 200 194 180 176 175 178 181 181 183 187 190 190 189 190 196 200 204 207 208 212 215 218 221 224 227 229 232 234 237 241 244 247 248 249 251 254 255 257 258
317 298 242 179 180 182 175 174 181 186 187 186 191 196 200 196 181 171 170 176 176 176 177 182 185 190 192 194 196 198 204 207 212 214 216 219 222 224 228 233 235 238 240 241 243 245 247 249 250 252 254 256 258 260
276 174 152 153 156 167 165 162 169 179 186 189 193 194 194 177 170 170 173 172 176 178 178 181 182 186 190 196 201 204 208 211 214 216 221 227 230 232 235 239 241 244 245 246 246 248 250 253 255 257 259 261 263 265
130 140 139 140 140 144 152 154 157 163 173 180 181 185 185 176 176 180 182 185 180 176 176 176 180 186 188 193 200 205 211 216 220 225 230 235 238 238 238 239 242 245 248 252 255 256 258 259 261 262 264 265 267 268
117 122 128 133 132 132 136 142 151 158 164 165 167 174 177 179 172 172 179 183 176 174 180 183 185 186 188 192 197 204 211 217 223 229 231 234 239 244 249 251 253 254 256 259 261 263 264 266 267 268 269 269 270 271
113 117 122 127 123 130 133 134 138 144 149 157 161 164 168 172 172 174 179 183 183 184 185 186 185 187 189 195 200 207 216 224 227 235 237 240 243 248 253 257 261 263 264 265 267 268 269 270 271 272 272 272 272 271
109 115 122 125 124 126 130 133 135 138 143 150 156 163 168 173 175 177 180 186 192 196 196 198 199 203 208 217 222 229 236 244 245 245 246 249 252 252 255 257 258 261 263 266 267 268 268 268 268 268 267 268 268 268
114 115 119 120 119 121 123 127 130 134 138 144 148 154 160 165 169 174 181 186 190 194 198 202 209 225 228 228 239 245 247 252 256 260 266 268 270 271 274 275 273 272 273 273 273 273 272 272 271 271 271 271 271 271
112 112 113 117 117 117 119 122 123 126 127 129 134 140 145 149 153 158 163 168 170 176 187 198 208 211 218 223 223 220 228 251 265 270 272 275 274 272 270 270 271 272 272 272 273 274 274 274 275 276 277 277 278 279
113 113 114 119 116 116 115 117 118 120 122 124 125 128 130 133 136 141 145 149 151 153 153 154 152 146 144 143 157 217 255 265 268 271 272 274 278 278 277 277 277 278 279 279 278 279 280 280 281 282 284 285 286 287
115 115 115 114 112 112 114 113 113 112 113 113 114 116 116 117 116 117 118 119 118 118 120 124 132 146 157 177 238 272 283 287 287 287 288 287 287 287 285 285 284 284 283 284 283 283 284 285 287 288 290 290 290 290
117 115 114 112 112 111 110 108 107 106 106 105 104 104 106 108 110 113 115 117 118 119 118 118 109 81 342 317 311 308 306 305 303 302 300 298 295 292 292 291 290 290 289 289 289 289 289 289 290 291 292 292 291 291
115 113 110 108 107 107 107 105 107 107 109 109 111 112 113 112 111 107 104 102 98 90 77 46 4 340 329 324 320 315 313 312 309 307 304 303 300 298 296 295 294 293 293 292 292 292 292 293 294 294 293 292 290 290
118 117 115 115 114 114 115 114 113 113 114 112 109 105 102 98 94 91 84 72 49 19 357 345 334 330 327 324 320 318 315 311 308 307 305 304 303 302 300 298 297 295 294 295 295 296 296 296 296 295 294 293 292 292
124 124 123 122 122 120 118 115 112 109 104 100 95 90 85 77 66 51 31 9 350 339 332 328 327 325 322 320 316 314 312 311 311 310 310 309 308 306 305 302 300 300 299 299 300 299 299 298 298 297 296 295 294 293
132 131 128 127 125 122 118 115 110 103 94 82 72 58 41 25 10 355 341 331 329 332 330 324 320 319 318 316 314 312 313 314 314 315 316 315 313 311 308 306 304 304 303 303 302 302 301 301 300 299 298 297 296 295
135 134 132 131 126 118 111 106 97 88 75 51 35 22 12 1 347 338 331 332 329 324 320 320 319 317 314 313 313 315 315 316 317 319 320 319 318 315 312 310 309 308 308 307 306 305 304 302 301 300 299 298 297 297
146 143 137 130 123 121 116 104 81 61 42 27 19 9 355 344 337 334 330 325 322 320 320 318 316 314 314 314 315 316 317 318 321 322 321 321 319 316 315 313 313 312 311 310 308 307 305 304 304 303 303 302 302 300
150 141 140 135 128 123 112 95 40 26 14 358 345 338 334 330 327 325 322 322 320 318 317 315 315 315 316 316 317 318 319 321 323 324 324 321 319 317 316 316 316 315 314 313 312 311 310 309 309 307 307 305 304 303
157 159 160 151 138 143 161 350 346 336 326 318 315 317 318 318 318 318 318 317 317 316 316 317 317 317 317 317 317 319 320 322 322 321 320 319 319 320 320 319 318 316 316 316 316 314 314 313 312 312 310 309 308 307
174 174 171 169 199 248 297 311 313 308 303 305 309 311 311 311 314 315 314 315 316 315 316 317 317 317 316 317 317 319 320 321 320 319 319 320 321 321 320 319 318 318 318 318 318 318 317 317 316 315 314 313 312 311
200 204 217 236 255 269 284 291 297 302 304 304 305 305 306 309 312 313 314 314 314 315 315 316 316 315 317 317 318 320 320 320 319 319 320 321 321 321 320 319 320 321 321 321 321 320 320 319 318 318 317 316 315 314
215 223 239 252 258 271 281 290 293 296 300 302 302 305 308 311 312 312 312 312 313 314 316 316 315 316 317 317 319 319 319 319 319 319 320 320 320 320 321 322 322 322 322 322 322 322 321 320 320 320 320 318 316 316